EHI
0 0 0 0 0 0 0 0 0 0 0 0 0 0 0 0 0 0 0 0 0 0 0 0 0 0 0 0 0 0 0 0 0 0 0 0 0 0
0 0 0 0 0 0 0 0 0 0 0 0 0 0 0 0 0 0 0 0 0 0 0 0 0 0 0 0 0 0 0 0 0 0 0 0 0 0
0 0 0 0 0 0 0 0 0 0 0 0 0 0 0 0 0 0 0 0 0 0 0 0 0 0 0 0 0 0 0 0 0 0 0 0 0 0
0 0 0 0 0 0 0 0 0 0 0 0 0 0 0 0 0 0 0 0 0 0 0 0 0 0 0 0 0 0 0 0 0 0 0 0 0 0
0 0 0 0 0 0 0 0 0 0 0 0 0 0 0 0 0 0 0 0 0 0 0 0 0 0 0 0 0 0 0 0 0 0 0 0 0 0
0 0 0 0 0 0 0 0 0 0 0 0 0 0 0 0 0 0 0 0 0 0 0 0 0 0 0 0 0 0 0 0 0 0 0 0 0 0
0 0 0 0 0 0 0 0 0 0 0 0 0 0 0 0 0 0 0 0 0 0 0 0 0 0 0 0 0 0 0 0 0 0 0 0 0 0
0 0 0 0 0 0 0 0 0 0 0 0 0 0 0 0 0 0 0 0 0 0 0 0 0 0 0 0 0 0 0 0 0 0 0 0 0 0
0 0 0 0 0 0 0 0 0 0 0 0 0 0 0 0 0 0 0 0 0 0 0 0 0 0 0 0 0 0 0 0 0 0 0 0 0 0
0 0 0 0 0 0 0 0 0 0 0 0 0 0 0 0 0 0 0 0 0 0 0 0 0 0 0 0 0 0 0 0 0 0 0 0 0 0
0 0 0 0 0 0 0 0 0 0 0 0 0 0 0 0 0 0 0 0 0 0 0 0 0 0 0 0 0 0 0 0 0 0 0 0 0 0
0 0 0 0 0 0 0 0 0 0 0 0 0 0 0 0 0 0 0 0 0 0 0 0 0 0 0 0 0 0 0 0 0 0 0 0 0 0
0 0 0 0 0 0 0 0 0 0 0 0 0 0 0 0 0 0 0 0 0 0 0 0 0 0 0 0 0 0 0 0 0 0 0 0 0 0
0 0 0 0 0 0 0 0 0 0 0 0 0 0 0 0 0 0 0 0 0 0 0 0 0 0 0 0 0 0 0 0 0 0 0 0 0 0
0 0 0 0 0 0 0 0 0 0 0 0 0 0 0 0 0 0 0 0 0 0 0 0 0 0 0 0 0 0 0 0 0 0 0 0 0 0
0 0 0 0 0 0 0 0 0 0 0 0 0 0 0 0 0 0 0 0 0 0 0 0 0 0 0 0 0 0 0 0 0 0 0 0 0 0
0 0 0 0 0 0 0 0 0 0 0 0 0 0 0 0 0 0 0 0 0 0 0 0 0 0 0 0 0 0 0 0 0 0 0 0 0 0
0 0 0 0 0 0 0 0 0 0 0 0 0 0 0 0 0 0 0 0 0 0 0 0 0 0 0 0 0 0 0 0 0 0 0 0 0 0
0 0 0 0 0 0 0 0 0 0 0 0 0 0 0 0 0 0 0 0 0 0 0 0 0 0 0 0 0 0 0 0 0 0 0 0 0 0
0 0 0 0 0 0 0 0 0 0 0 0 0 0 0 0 0 0 0 0 0 0 0 0 0 0 0 0 0 0 0 0 0 0 0 0 0 0
0 0 0 0 0 0 0 0 0 0 0 0 0 0 0 0 0 0 0 0 0 0 0 0 0 0 0 0 0 0 0 0 0 0 0 0 0 0
0 0 0 0 0 0 0 0 0 0 0 0 0 0 0 0 0 0 0 0 0 0 0 0 0 0 0 0 0 0 0 0 0 0 0 0 0 0
0 0 0 0 0 0 0 0 0 0 0 0 0 0 0 0 0 0 0 0 0 0 0 0 0 0 0 0 0 0 0 0 0 0 0 0 0 0
Wind_Speed
2 3 3 2 2 2 2 3 4 6 6 4 2 2 3 3 5 5 6 10 12 13 14 14 13 13 12 12 12 11 11 10 10 9 9 9 9 9
1 2 2 2 2 2 2 2 3 5 7 3 3 3 3 4 7 6 7 11 12 13 14 13 13 13 13 12 12 11 11 11 10 10 10 10 10 9
1 1 2 2 2 2 2 2 3 4 7 6 3 3 4 6 6 5 6 6 7 13 14 14 14 13 13 13 12 12 11 11 11 11 10 11 10 10
2 2 2 2 2 2 2 3 4 4 5 8 5 4 5 6 6 6 6 6 6 10 14 14 14 14 13 13 12 12 12 12 11 11 11 10 10 10
2 3 3 3 3 3 3 3 3 4 4 6 6 4 4 4 5 5 5 5 5 7 11 13 14 14 13 12 11 11 12 11 11 11 10 10 10 10
2 3 3 3 4 4 4 4 4 5 5 5 6 5 4 4 4 4 5 4 5 5 8 9 11 12 13 12 11 10 10 10 11 11 10 9 8 8
3 3 3 4 5 5 4 4 4 4 5 5 6 5 5 4 4 4 6 5 6 4 4 5 5 5 7 9 9 10 10 11 11 11 10 9 8 8
3 3 3 3 4 6 8 7 6 6 6 6 6 6 7 6 5 5 5 5 6 3 3 5 3 5 5 5 8 10 10 11 10 10 10 9 8 7
3 3 3 3 4 3 5 7 7 8 8 6 7 7 7 6 6 6 6 7 7 4 3 5 4 5 4 5 10 10 10 11 10 10 10 9 8 7
3 3 3 4 4 6 5 4 5 5 6 5 5 6 6 6 6 7 7 7 6 4 3 5 3 4 3 3 9 10 9 10 10 10 10 9 8 6
4 4 4 4 8 9 6 5 6 5 7 9 10 9 10 10 8 5 5 5 6 4 3 3 2 2 2 3 5 8 8 8 9 9 9 8 8 6
4 4 6 7 9 10 6 5 6 6 6 7 7 7 7 7 8 5 4 5 5 4 3 2 2 1 2 1 2 2 4 6 8 9 9 9 8 4
4 4 5 11 12 11 9 6 8 8 5 5 5 5 5 4 4 4 4 4 5 5 3 2 2 2 2 1 1 1 2 2 3 4 7 8 8 6
4 4 5 11 12 12 8 9 11 8 4 4 4 4 4 4 4 4 4 4 4 5 4 3 3 3 2 2 2 1 2 2 2 2 2 5 5 6
4 8 11 12 11 8 8 10 8 4 3 4 4 4 4 4 4 4 3 3 3 3 2 2 3 2 2 3 2 2 2 2 2 3 3 3 2 3
5 8 11 11 9 9 8 6 4 3 4 4 4 4 4 3 3 3 3 3 3 3 2 2 1 2 2 2 3 3 2 3 3 3 3 2 2 2
6 4 4 5 5 5 4 4 3 3 4 4 4 4 4 4 3 3 2 2 2 3 3 1 1 0 0 1 2 3 3 2 3 3 3 2 2 2
5 3 4 4 5 6 6 5 4 4 4 4 4 4 4 4 4 3 2 2 2 2 2 2 1 0 0 1 1 2 2 2 3 3 3 3 2 2
3 3 4 5 5 5 6 6 5 5 4 4 4 4 4 4 4 3 3 2 2 2 2 1 1 1 2 1 1 1 2 3 3 3 3 2 3 3
3 3 4 5 5 6 6 6 6 5 5 4 4 4 4 4 3 3 3 3 2 2 2 1 1 1 2 1 1 1 1 3 3 3 2 2 2 3
4 4 4 5 5 6 6 6 6 5 5 5 4 4 3 3 3 4 3 4 3 2 2 2 1 0 1 2 2 1 1 3 3 3 3 3 2 2
4 4 4 5 5 5 5 6 6 5 5 5 5 4 4 3 4 4 3 3 2 1 1 1 0 1 1 2 2 2 2 3 4 5 4 3 3 4
4 4 4 5 5 5 5 6 6 5 5 5 5 4 4 4 4 3 3 2 1 1 1 1 1 1 1 2 3 3 4 4 3 4 3 3 4 5
Wind_Direction
220 224 234 241 235 233 229 222 242 267 265 243 241 246 254 257 260 250 252 254 255 259 263 266 266 262 260 257 256 249 248 247 240 242 246 248 254 265
229 227 238 246 245 245 244 244 243 257 269 258 256 268 266 271 269 257 254 263 258 259 260 261 261 258 255 251 244 237 238 237 235 239 246 247 253 261
264 251 255 262 257 256 258 259 253 253 271 281 272 269 261 261 268 260 260 254 255 257 259 260 259 256 253 247 237 233 234 233 234 238 243 246 250 255
257 251 252 258 255 260 257 261 262 263 271 281 284 274 262 256 256 260 266 262 256 260 259 261 260 258 252 245 236 229 230 232 232 237 241 245 250 250
244 242 246 247 252 258 261 260 265 274 270 277 284 284 279 276 274 271 272 265 263 263 262 260 258 254 246 240 238 229 226 224 225 229 232 240 245 247
266 258 254 244 248 253 257 259 267 268 272 275 279 285 284 281 274 278 282 266 268 266 262 264 262 254 243 239 237 229 225 222 223 229 230 232 238 246
274 269 263 261 266 271 274 265 264 266 272 275 281 288 288 288 277 273 275 280 270 251 256 254 251 248 238 236 228 223 223 223 223 224 223 222 229 243
299 298 290 275 286 295 291 286 279 270 267 267 274 281 286 288 285 281 280 281 278 243 247 262 244 248 241 225 227 227 224 222 222 220 216 215 220 231
322 318 315 319 321 298 299 303 295 292 282 270 274 278 284 283 283 279 273 271 268 265 251 261 245 247 245 237 230 230 227 222 221 215 209 209 214 222
333 322 330 332 328 323 314 305 294 293 292 282 272 276 279 281 273 271 273 275 276 261 226 250 248 250 252 240 233 229 222 215 212 210 205 206 209 213
341 349 343 331 330 332 323 311 307 302 304 300 296 294 294 295 295 288 279 274 278 269 234 236 249 267 257 244 235 223 214 208 208 207 203 202 203 207
341 340 339 336 334 333 322 309 301 300 304 302 301 301 295 290 293 276 266 267 275 271 227 219 242 237 262 259 238 217 213 211 204 200 198 197 194 185
332 329 331 337 334 328 322 304 300 306 299 295 295 294 294 289 285 282 269 261 263 265 233 209 235 227 223 250 250 215 192 192 190 194 190 188 186 175
329 324 323 329 329 326 321 317 316 313 298 298 298 299 300 299 293 287 278 270 261 258 246 226 229 216 213 238 238 198 184 181 172 169 164 175 178 182
328 329 330 334 334 331 332 332 328 314 305 307 305 300 293 289 292 294 296 294 296 290 269 255 235 218 212 225 215 191 182 192 183 169 160 161 163 168
331 332 339 344 342 335 333 334 328 322 322 310 305 302 304 304 301 303 305 313 314 316 323 320 244 212 230 225 203 200 183 178 172 165 156 155 152 157
332 338 341 343 343 338 331 327 325 329 330 318 311 312 311 307 301 302 299 304 298 296 308 322 352 88 108 226 210 198 185 174 168 162 157 162 170 174
350 343 339 339 337 335 332 327 326 328 327 321 315 311 309 306 305 303 294 290 291 294 295 290 281 300 20 10 323 202 188 179 163 160 162 165 180 172
360 342 336 335 334 331 329 326 323 323 321 317 313 311 308 305 305 306 307 303 299 291 292 284 242 213 212 244 339 2 172 160 152 155 164 167 178 172
349 338 333 332 331 329 328 327 325 325 324 322 319 316 311 306 305 305 303 300 297 298 298 287 263 234 225 201 156 17 154 163 158 159 149 117 104 124
335 332 331 330 330 327 326 326 325 324 327 327 323 318 313 310 307 304 303 304 302 292 296 297 289 168 107 104 106 87 70 111 130 141 139 129 123 129
326 324 325 325 327 326 326 326 325 325 327 327 325 320 318 313 307 304 303 304 302 296 301 309 332 94 108 145 145 131 108 91 94 97 93 123 152 165
320 319 320 321 323 324 325 324 324 323 323 323 322 321 320 314 308 302 303 300 301 303 325 349 29 63 87 125 133 129 123 115 105 97 72 79 112 122